FW7659 Weather Reports


Display with metric or nautical units.
time (UTC)temp
F
wind
direction
speed
MPH
gust
MPH
rain 1hr
in
rain 24hr
in
rain mn
in
humidity
%
barometer
mb
20260505152904 70 280 1.0 1.0 0.00 0.00 0.00 53 1017.4
20260505152404 70 259 0.0 2.0 0.00 0.00 0.00 54 1017.4
20260505151403 69 236 1.0 1.0 0.00 0.00 0.00 56 1017.5
20260505150903 69 257 0.0 2.0 0.00 0.00 0.00 56 1017.6
20260505140404 62 319 0.0 2.0 0.00 0.00 0.00 62 1017.5
20260505124904 57 122 0.0 1.0 0.00 0.00 0.00 66 1016.9
20260505124403 57 122 0.0 2.0 0.00 0.00 0.00 66 1016.8
20260505123904 57 122 0.0 2.0 0.00 0.00 0.00 65 1016.7
20260505123403 57 122 0.0 2.0 0.00 0.00 0.00 65 1016.8
20260505122903 57 122 0.0 2.0 0.00 0.00 0.00 66 1016.8
20260505122404 57 122 0.0 2.0 0.00 0.00 0.00 65 1016.8
20260505121903 57 122 0.0 2.0 0.00 0.00 0.00 64 1016.8
20260505121403 57 122 1.0 2.0 0.00 0.00 0.00 66 1016.8
20260505120403 56 122 0.0 0.0 0.00 0.00 0.00 66 1016.8
20260505115904 56 122 0.0 0.0 0.00 0.00 0.00 64 1016.8
20260505115404 56 122 0.0 2.0 0.00 0.00 0.00 67 1016.7
20260505114903 57 123 0.0 2.0 0.00 0.00 0.00 68 1016.7
20260505113903 57 124 0.0 0.0 0.00 0.00 0.00 65 1016.4
20260505113404 57 124 0.0 0.0 0.00 0.00 0.00 64 1016.3
20260505112904 57 124 0.0 0.0 0.00 0.00 0.00 63 1016.1
20260505112404 57 124 0.0 0.0 0.00 0.00 0.00 62 1016.1
20260505111904 57 124 0.0 0.0 0.00 0.00 0.00 62 1016.0
20260505111404 56 124 0.0 2.0 0.00 0.00 0.00 62 1016.0
20260505110904 56 124 0.0 1.0 0.00 0.00 0.00 62 1015.9
20260505110403 56 124 0.0 2.0 0.00 0.00 0.00 61 1016.1
20260505101904 56 124 0.0 2.0 0.00 0.00 0.00 60 1015.8
20260505101404 56 124 0.0 2.0 0.00 0.00 0.00 60 1015.8
20260505100904 56 124 0.0 2.0 0.00 0.00 0.00 60 1016.0
20260505100404 56 124 0.0 2.0 0.00 0.00 0.00 60 1016.1
20260505095903 56 124 0.0 2.0 0.00 0.00 0.00 61 1016.2
20260505095404 56 124 0.0 2.0 0.00 0.00 0.00 61 1016.2
20260505094903 56 124 0.0 2.0 0.00 0.00 0.00 61 1016.0
20260505094404 56 124 0.0 0.0 0.00 0.00 0.00 60 1016.2
20260505093904 56 124 0.0 2.0 0.00 0.00 0.00 60 1016.2
20260505093403 57 124 0.0 2.0 0.00 0.00 0.00 60 1016.1
20260505092904 57 124 0.0 2.0 0.00 0.00 0.00 59 1016.1
20260505092404 57 124 1.0 2.0 0.00 0.00 0.00 59 1016.2
20260505091903 57 109 0.0 2.0 0.00 0.00 0.00 58 1016.2
20260505091404 57 109 0.0 2.0 0.00 0.00 0.00 58 1016.1
20260505090904 57 109 0.0 2.0 0.00 0.00 0.00 58 1016.1
20260505090404 57 91 0.0 2.0 0.00 0.00 0.00 57 1016.3
20260505085904 57 91 0.0 2.0 0.00 0.00 0.00 58 1016.3
20260505084904 57 86 0.0 2.0 0.00 0.00 0.00 59 1016.3
20260505084403 57 86 0.0 2.0 0.00 0.00 0.00 59 1016.4
20260505083403 57 86 0.0 2.0 0.00 0.00 0.00 60 1016.4
20260505082904 57 86 0.0 2.0 0.00 0.00 0.00 60 1016.4
20260505081904 57 86 0.0 1.0 0.00 0.00 0.00 60 1016.3
20260505080404 57 86 0.0 2.0 0.00 0.00 0.00 61 1016.3
20260505074904 57 86 0.0 2.0 0.00 0.00 0.00 61 1016.4
20260505073904 57 86 0.0 2.0 0.00 0.00 0.00 59 1016.4
20260505073404 58 86 0.0 2.0 0.00 0.00 0.00 58 1016.4
20260505072904 58 86 0.0 1.0 0.00 0.00 0.00 58 1016.4
20260505072404 58 86 0.0 1.0 0.00 0.00 0.00 58 1016.4
20260505071904 59 86 0.0 2.0 0.00 0.00 0.00 56 1016.4
20260505071404 58 86 0.0 2.0 0.00 0.00 0.00 57 1016.4
20260505070904 59 86 0.0 2.0 0.00 0.00 0.00 57 1016.4
20260505065904 58 86 0.0 2.0 0.00 0.00 0.00 57 1016.3
20260505065404 59 86 0.0 1.0 0.00 0.00 0.00 57 1016.3
20260505064905 59 86 0.0 2.0 0.00 0.00 0.00 57 1016.4
20260505064403 59 86 0.0 2.0 0.00 0.00 0.00 56 1016.4
20260505063404 59 86 0.0 2.0 0.00 0.00 0.00 56 1016.4
20260505062904 59 86 0.0 2.0 0.00 0.00 0.00 56 1016.4
20260505062404 59 86 0.0 2.0 0.00 0.00 0.00 56 1016.5
20260505061904 59 86 0.0 2.0 0.00 0.00 0.00 55 1016.6
20260505061404 59 86 0.0 2.0 0.00 0.00 0.00 55 1016.6
20260505060903 59 85 0.0 2.0 0.00 0.00 0.00 56 1016.6
20260505060404 59 85 0.0 2.0 0.00 0.00 0.00 56 1016.6
20260505055903 59 85 0.0 2.0 0.00 0.00 0.00 56 1016.7
20260505054404 59 68 0.0 1.0 0.00 0.00 0.00 58 1016.8
20260505053904 59 168 0.0 2.0 0.00 0.00 0.00 58 1016.8
20260505053403 59 168 0.0 1.0 0.00 0.00 0.00 57 1016.8
20260505052904 59 168 0.0 2.0 0.00 0.00 0.00 57 1016.7
20260505051904 59 169 0.0 2.0 0.00 0.00 0.00 57 1016.8
20260505051404 59 168 0.0 2.0 0.00 0.00 0.00 58 1016.9
20260505050904 59 168 0.0 2.0 0.00 0.00 0.00 57 1016.9
20260505050404 59 169 0.0 2.0 0.00 0.00 0.00 57 1016.8
20260505040904 60 168 0.0 2.0 0.00 0.00 0.00 55 1016.6
20260505040403 60 168 0.0 2.0 0.00 0.00 0.00 55 1016.7
20260505035903 60 168 0.0 2.0 0.00 0.00 0.00 54 1016.7
20260505035404 60 168 0.0 2.0 0.00 0.00 0.00 53 1016.8
20260505034903 61 168 0.0 2.0 0.00 0.00 0.00 53 1016.8
20260505034403 61 168 0.0 1.0 0.00 0.00 0.00 53 1016.8
20260505033903 61 168 0.0 2.0 0.00 0.00 0.00 53 1016.8
20260505033404 61 168 0.0 2.0 0.00 0.00 0.00 53 1016.8
20260505032903 61 168 0.0 2.0 0.00 0.00 0.00 53 1016.8
20260505032404 61 168 0.0 2.0 0.00 0.00 0.00 52 1016.9
20260505031904 62 168 0.0 2.0 0.00 0.00 0.00 52 1016.9
20260505031403 62 168 0.0 1.0 0.00 0.00 0.00 51 1016.9
20260505030904 62 180 0.0 1.0 0.00 0.00 0.00 51 1016.8
20260505030404 62 180 0.0 2.0 0.00 0.00 0.00 52 1016.8
20260505025904 62 180 0.0 1.0 0.00 0.00 0.00 52 1016.8
20260505025403 62 180 0.0 2.0 0.00 0.00 0.00 52 1017.0
20260505024904 62 180 0.0 1.0 0.00 0.00 0.00 53 1016.9
20260505024404 63 180 0.0 1.0 0.00 0.00 0.00 52 1016.8
20260505023904 62 180 0.0 2.0 0.00 0.00 0.00 52 1016.8
20260505022904 62 180 0.0 2.0 0.00 0.00 0.00 53 1016.8
20260505022404 62 180 0.0 2.0 0.00 0.00 0.00 53 1016.8
20260505021904 62 180 0.0 1.0 0.00 0.00 0.00 53 1016.7
20260505020903 63 180 0.0 2.0 0.00 0.00 0.00 54 1016.6
20260505015404 63 180 0.0 0.0 0.00 0.00 0.00 53 1016.5
20260505014904 63 180 0.0 2.0 0.00 0.00 0.00 55 1016.5
20260505014404 63 180 0.0 0.0 0.00 0.00 0.00 54 1016.5
20260505013903 64 180 0.0 1.0 0.00 0.00 0.00 53 1016.3
20260505013403 64 180 0.0 2.0 0.00 0.00 0.00 52 1016.3
20260505012904 64 180 0.0 2.0 0.00 0.00 0.00 53 1016.2
20260505011904 64 180 0.0 2.0 0.00 0.00 0.00 53 1016.2
20260505011404 64 180 0.0 2.0 0.00 0.00 0.00 54 1016.2
20260505005903 64 180 0.0 0.0 0.00 0.00 0.00 57 1016.2
20260505005404 64 180 0.0 2.0 0.00 0.00 0.00 56 1016.2
20260505004903 64 180 0.0 2.0 0.00 0.00 0.00 55 1016.2
20260505004404 64 180 0.0 1.0 0.00 0.00 0.00 56 1016.1
20260505003903 65 180 0.0 2.0 0.00 0.00 0.00 55 1016.1
20260505003404 65 180 0.0 1.0 0.00 0.00 0.00 54 1016.0
20260505002904 65 180 0.0 1.0 0.00 0.00 0.00 53 1016.0
20260505002404 65 180 0.0 2.0 0.00 0.00 0.00 54 1015.9
20260505001904 66 181 0.0 1.0 0.00 0.00 0.00 54 1015.9
20260505000904 66 181 0.0 2.0 0.00 0.00 0.00 57 1015.8
20260505000405 66 181 0.0 2.0 0.00 0.00 0.00 56 1015.9
20260504235904 67 181 0.0 2.0 0.00 0.00 0.00 55 1015.9
20260504235404 67 181 0.0 0.0 0.00 0.00 0.00 54 1015.9
20260504234904 67 181 0.0 0.0 0.00 0.00 0.00 53 1016.0
20260504234403 67 181 0.0 2.0 0.00 0.00 0.00 53 1016.0
20260504233904 66 181 0.0 0.0 0.00 0.00 0.00 54 1016.0
20260504233403 66 181 0.0 0.0 0.00 0.00 0.00 54 1016.0
20260504232904 66 181 0.0 0.0 0.00 0.00 0.00 53 1016.0
20260504232404 67 181 0.0 0.0 0.00 0.00 0.00 53 1016.0
20260504231904 67 181 0.0 0.0 0.00 0.00 0.00 52 1016.0
20260504231404 67 181 0.0 0.0 0.00 0.00 0.00 51 1015.9
20260504230404 67 181 0.0 0.0 0.00 0.00 0.00 51 1015.9
20260504225904 67 181 0.0 0.0 0.00 0.00 0.00 51 1015.8
20260504225404 68 181 0.0 1.0 0.00 0.00 0.00 50 1015.8
20260504224404 68 180 0.0 0.0 0.00 0.00 0.00 49 1016.1
20260504223904 68 180 0.0 0.0 0.00 0.00 0.00 49 1016.0
20260504223403 68 180 0.0 0.0 0.00 0.00 0.00 48 1016.0
20260504222903 68 180 0.0 2.0 0.00 0.00 0.00 49 1016.0
20260504222404 69 180 0.0 1.0 0.00 0.00 0.00 48 1016.2
20260504221904 68 208 0.0 2.0 0.00 0.00 0.00 49 1016.2
20260504221404 68 208 0.0 2.0 0.00 0.00 0.00 49 1016.2
20260504220904 69 208 0.0 2.0 0.00 0.00 0.00 47 1016.3
20260504215404 68 208 0.0 2.0 0.00 0.00 0.00 50 1016.1
20260504214903 69 208 0.0 1.0 0.00 0.00 0.00 54 1016.2
20260504213903 69 208 0.0 1.0 0.00 0.00 0.00 52 1016.1
20260504213404 69 208 0.0 2.0 0.00 0.00 0.00 53 1016.0
20260504212404 70 208 0.0 1.0 0.00 0.00 0.00 52 1015.9
20260504211903 70 208 0.0 2.0 0.00 0.00 0.00 52 1015.9
20260504211404 70 221 0.0 2.0 0.00 0.00 0.00 51 1016.0
20260504210404 69 231 0.0 2.0 0.00 0.00 0.00 52 1016.0
20260504205904 70 235 0.0 2.0 0.00 0.00 0.00 49 1016.1
20260504205403 70 236 0.0 2.0 0.00 0.00 0.00 51 1016.0
20260504204904 70 239 0.0 2.0 0.00 0.00 0.00 51 1016.0
20260504204404 70 239 0.0 2.0 0.00 0.00 0.00 50 1016.1
20260504203404 70 266 0.0 2.0 0.00 0.00 0.00 52 1016.2
20260504202904 70 266 0.0 2.0 0.00 0.00 0.00 52 1016.3
20260504202404 70 266 0.0 2.0 0.00 0.00 0.00 49 1016.3
20260504201904 70 269 0.0 2.0 0.00 0.00 0.00 47 1016.4
20260504201404 71 269 0.0 2.0 0.00 0.00 0.00 49 1016.5
20260504200404 71 2 0.0 1.0 0.00 0.00 0.00 49 1016.6
20260504195903 70 8 0.0 3.0 0.00 0.00 0.00 47 1016.7
20260504195404 70 234 0.0 1.0 0.00 0.00 0.00 49 1016.7
20260504194904 70 305 0.0 2.0 0.00 0.00 0.00 46 1016.8
20260504194404 71 267 0.0 2.0 0.00 0.00 0.00 50 1016.9
20260504193903 71 265 1.0 1.0 0.00 0.00 0.00 49 1017.0
20260504193403 72 306 0.0 2.0 0.00 0.00 0.00 48 1017.1
20260504192904 71 304 0.0 2.0 0.00 0.00 0.00 51 1017.1
20260504192404 71 276 0.0 1.0 0.00 0.00 0.00 51 1017.1
20260504191404 71 310 0.0 2.0 0.00 0.00 0.00 47 1017.3
20260504190903 71 310 0.0 2.0 0.00 0.00 0.00 49 1017.3
20260504185904 73 317 0.0 2.0 0.00 0.00 0.00 48 1017.2
20260504185403 72 357 0.0 2.0 0.00 0.00 0.00 44 1017.3
20260504184904 71 318 1.0 1.0 0.00 0.00 0.00 46 1017.3
20260504184403 72 271 0.0 2.0 0.00 0.00 0.00 47 1017.3
20260504183904 72 300 1.0 1.0 0.00 0.00 0.00 46 1017.4
20260504183403 74 288 1.0 2.0 0.00 0.00 0.00 46 1017.4
20260504182903 73 268 0.0 2.0 0.00 0.00 0.00 49 1017.4
20260504182404 72 271 1.0 2.0 0.00 0.00 0.00 45 1017.4
20260504181904 73 307 0.0 2.0 0.00 0.00 0.00 47 1017.5
20260504181404 72 277 1.0 1.0 0.00 0.00 0.00 45 1017.6
20260504180903 73 326 1.0 1.0 0.00 0.00 0.00 49 1017.6
20260504180404 73 294 1.0 2.0 0.00 0.00 0.00 49 1017.6
20260504175404 72 276 1.0 3.0 0.00 0.00 0.00 48 1017.7
20260504174903 72 261 0.0 2.0 0.00 0.00 0.00 47 1017.9
20260504173903 72 308 1.0 2.0 0.00 0.00 0.00 49 1018.0
20260504173404 72 286 1.0 2.0 0.00 0.00 0.00 48 1018.1
20260504172903 72 291 1.0 2.0 0.00 0.00 0.00 48 1018.2
20260504172403 71 311 0.0 1.0 0.00 0.00 0.00 49 1018.3
20260504171903 71 311 0.0 1.0 0.00 0.00 0.00 50 1018.4
20260504170904 71 317 1.0 1.0 0.00 0.00 0.00 50 1018.5
20260504170404 70 319 1.0 2.0 0.00 0.00 0.00 46 1018.5
20260504160404 68 267 1.0 1.0 0.00 0.00 0.00 51 1019.1